This is the latest recevied weather packets stored in our database for station/object IZ5ILU-16. If no packets are shown the sender has not sent any weather packets the latest 10 day(s).
| Time | Temp. | Humidity | Pressure | Rain* | Wind** | Luminosity | Snow |
|---|---|---|---|---|---|---|---|
| 1788528101 | 31.11° C | 45% | 1018.6 hPa | 0 mm | - | - | - |
| 1788527501 | 30.56° C | 48% | 1018.6 hPa | 0 mm | - | - | - |
| 1788526901 | 30.56° C | 48% | 1018.7 hPa | 0 mm | - | - | - |
| 1788526301 | 30° C | 51% | 1018.8 hPa | 0 mm | - | - | - |
| 1788525701 | 30° C | 49% | 1018.9 hPa | 0 mm | - | - | - |
| 1788525101 | 29.44° C | 51% | 1019 hPa | 0 mm | - | - | - |
| 1788524501 | 30° C | 51% | 1019.1 hPa | 0 mm | - | - | - |
| 1788523901 | 29.44° C | 53% | 1019.2 hPa | 0 mm | - | - | - |
| 1788523301 | 29.44° C | 52% | 1019.3 hPa | 0 mm | - | - | - |
| 1788522701 | 28.89° C | 54% | 1019.3 hPa | 0 mm | - | - | - |
| 1788522101 | 28.33° C | 54% | 1019.4 hPa | 0 mm | - | - | - |
| 1788521502 | 28.33° C | 56% | 1019.4 hPa | 0 mm | - | - | - |
| 1788520902 | 27.78° C | 58% | 1019.5 hPa | 0 mm | - | - | - |
| 1788520301 | 27.78° C | 57% | 1019.6 hPa | 0 mm | - | - | - |
| 1788519702 | 27.78° C | 56% | 1019.7 hPa | 0 mm | - | - | - |
| 1788519102 | 28.33° C | 56% | 1019.7 hPa | 0 mm | - | - | - |
| 1788518502 | 28.33° C | 59% | 1019.9 hPa | 0 mm | - | - | - |
| 1788517902 | 27.78° C | 58% | 1020 hPa | 0 mm | - | - | - |
| 1788517302 | 27.78° C | 59% | 1020.1 hPa | 0 mm | - | - | - |
| 1788516702 | 27.22° C | 62% | 1020.2 hPa | 0 mm | - | - | - |
| 1788516102 | 27.22° C | 65% | 1020.2 hPa | 0 mm | - | - | - |
| 1788515502 | 26.67° C | 64% | 1020.3 hPa | 0 mm | - | - | - |
| 1788514902 | 26.67° C | 64% | 1020.3 hPa | 0 mm | - | - | - |
| 1788514302 | 26.11° C | 66% | 1020.3 hPa | 0 mm | - | - | - |
| 1788513702 | 26.11° C | 68% | 1020.3 hPa | 0 mm | - | - | - |
* Rain latest hour (hover to see other rain measurements)
** Current wind speed in m/s (hover to see current wind gust speed)